Time,TemperatureF,DewpointF,PressureIn,WindDirection,WindDirectionDegrees,WindSpeedMPH,WindSpeedGustMPH,Humidity,HourlyPrecipIn,Conditions,Clouds,dailyrainin,SolarRadiationWatts/m^2,SoftwareType,DateUTC
2013-03-17 00:10:00,32.3,7.7,29.73,North,11,4.0,4.0,35,0.00,,,0.00,0,Wunderground v.1.15,2013-03-17 06:10:00,
2013-03-17 00:20:00,32.1,9.9,29.72,West,262,4.0,4.0,39,0.00,,,0.00,0,Wunderground v.1.15,2013-03-17 06:20:00,
2013-03-17 00:40:00,31.4,9.3,29.70,SSW,200,4.0,7.0,39,0.00,,,0.00,0,Wunderground v.1.15,2013-03-17 06:40:00,
2013-03-17 00:50:00,32.6,7.3,29.70,SSE,165,6.0,6.0,34,0.00,,,0.00,0,Wunderground v.1.15,2013-03-17 06:50:00,
2013-03-17 01:10:00,33.4,7.3,29.70,South,174,6.0,6.0,33,0.00,,,0.00,0,Wunderground v.1.15,2013-03-17 07:10:00,
2013-03-17 01:20:00,33.8,7.0,29.69,North,355,6.0,6.0,32,0.00,,,0.00,0,Wunderground v.1.15,2013-03-17 07:20:00,
2013-03-17 01:40:00,33.7,7.6,29.69,West,271,4.0,6.0,33,0.00,,,0.00,0,Wunderground v.1.15,2013-03-17 07:40:00,
2013-03-17 01:50:00,33.8,7.0,29.69,East,90,6.0,6.0,32,0.00,,,0.00,0,Wunderground v.1.15,2013-03-17 07:50:00,
2013-03-17 02:10:00,33.6,8.2,29.69,East,81,5.0,5.0,34,0.00,,,0.00,0,Wunderground v.1.15,2013-03-17 08:10:00,
2013-03-17 02:20:00,33.2,7.8,29.68,East,100,4.0,4.0,34,0.00,,,0.00,0,Wunderground v.1.15,2013-03-17 08:20:00,
2013-03-17 02:40:00,32.6,8.6,29.68,SSE,147,5.0,5.0,36,0.00,,,0.00,0,Wunderground v.1.15,2013-03-17 08:40:00,
2013-03-17 02:50:00,33.0,8.3,29.67,NW,313,8.0,14.0,35,0.00,,,0.00,0,Wunderground v.1.15,2013-03-17 08:50:00,
2013-03-17 03:10:00,33.0,8.9,29.66,South,169,5.0,7.0,36,0.00,,,0.00,0,Wunderground v.1.15,2013-03-17 09:10:00,
2013-03-17 03:20:00,32.9,8.8,29.66,SSE,149,5.0,9.0,36,0.00,,,0.00,0,Wunderground v.1.15,2013-03-17 09:20:00,
2013-03-17 03:40:00,32.5,9.1,29.65,South,191,6.0,9.0,37,0.00,,,0.00,0,Wunderground v.1.15,2013-03-17 09:40:00,
2013-03-17 03:50:00,32.4,8.4,29.65,SSE,159,4.0,4.0,36,0.00,,,0.00,0,Wunderground v.1.15,2013-03-17 09:50:00,
2013-03-17 04:00:00,32.2,8.8,29.64,SSW,197,6.0,7.0,37,0.00,,,0.00,0,Wunderground v.1.15,2013-03-17 10:00:00,
2013-03-17 04:20:00,31.9,9.1,29.63,ESE,103,6.0,6.0,38,0.00,,,0.00,0,Wunderground v.1.15,2013-03-17 10:20:00,
2013-03-17 04:30:00,32.0,9.2,29.62,SSW,205,5.0,7.0,38,0.00,,,0.00,0,Wunderground v.1.15,2013-03-17 10:30:00,
2013-03-17 04:50:00,31.7,8.4,29.61,ESE,103,4.0,7.0,37,0.00,,,0.00,0,Wunderground v.1.15,2013-03-17 10:50:00,
2013-03-17 05:00:00,31.9,8.5,29.61,South,187,4.0,8.0,37,0.00,,,0.00,0,Wunderground v.1.15,2013-03-17 11:00:00,
2013-03-17 05:20:00,31.4,10.9,29.61,South,171,4.0,4.0,42,0.00,,,0.00,0,Wunderground v.1.15,2013-03-17 11:20:00,
2013-03-17 05:30:00,31.5,10.5,29.60,South,169,4.0,6.0,41,0.00,,,0.00,0,Wunderground v.1.15,2013-03-17 11:30:00,
2013-03-17 05:50:00,32.4,10.2,29.59,SW,233,11.0,17.0,39,0.00,,,0.00,0,Wunderground v.1.15,2013-03-17 11:50:00,
2013-03-17 06:00:00,32.5,11.4,29.59,SW,223,11.0,11.0,41,0.00,,,0.00,0,Wunderground v.1.15,2013-03-17 12:00:00,
2013-03-17 06:20:00,31.7,13.7,29.59,SW,225,13.0,13.0,47,0.00,,,0.00,0,Wunderground v.1.15,2013-03-17 12:20:00,
2013-03-17 06:30:00,31.0,14.5,29.59,WSW,249,12.0,12.0,50,0.00,,,0.00,0,Wunderground v.1.15,2013-03-17 12:30:00,
2013-03-17 07:00:00,31.1,14.6,29.59,SE,144,7.0,7.0,50,0.00,,,0.00,0,Wunderground v.1.15,2013-03-17 13:00:00,
2013-03-17 07:10:00,31.2,14.2,29.59,ESE,111,4.0,4.0,49,0.00,,,0.00,0,Wunderground v.1.15,2013-03-17 13:10:00,
2013-03-17 07:30:00,30.6,14.6,29.59,SW,223,2.0,2.0,51,0.00,,,0.00,33,Wunderground v.1.15,2013-03-17 13:30:00,
2013-03-17 07:40:00,31.5,14.5,29.59,South,173,2.0,6.0,49,0.00,,,0.00,37,Wunderground v.1.15,2013-03-17 13:40:00,
2013-03-17 08:00:00,31.7,18.6,29.61,West,273,5.0,6.0,58,0.00,,,0.00,21,Wunderground v.1.15,2013-03-17 14:00:00,
2013-03-17 08:20:00,29.7,19.4,29.59,NNE,17,7.0,7.0,65,0.00,,,0.00,54,Wunderground v.1.15,2013-03-17 14:20:00,
2013-03-17 08:40:00,28.5,20.9,29.58,ESE,113,5.0,5.0,73,0.00,,,0.00,33,Wunderground v.1.15,2013-03-17 14:40:00,
2013-03-17 09:00:00,27.6,22.8,29.58,ESE,123,5.0,5.0,82,0.00,,,0.00,109,Wunderground v.1.15,2013-03-17 15:00:00,
2013-03-17 09:10:00,28.2,22.5,29.57,SSE,158,2.0,7.0,79,0.00,,,0.00,100,Wunderground v.1.15,2013-03-17 15:10:00,
2013-03-17 09:20:00,29.6,22.3,29.57,East,101,7.0,7.0,74,0.00,,,0.00,323,Wunderground v.1.15,2013-03-17 15:20:00,
2013-03-17 09:30:00,31.2,21.5,29.57,WSW,244,8.0,8.0,67,0.00,,,0.00,387,Wunderground v.1.15,2013-03-17 15:30:00,
2013-03-17 09:40:00,32.3,21.1,29.57,NNW,338,12.0,12.0,63,0.00,,,0.00,366,Wunderground v.1.15,2013-03-17 15:40:00,
2013-03-17 09:50:00,32.3,22.6,29.56,NNE,13,6.0,13.0,67,0.00,,,0.00,364,Wunderground v.1.15,2013-03-17 15:50:00,
2013-03-17 10:00:00,33.2,20.8,29.56,NNW,342,10.0,12.0,60,0.00,,,0.00,341,Wunderground v.1.15,2013-03-17 16:00:00,
2013-03-17 10:10:00,33.4,19.8,29.56,WNW,290,10.0,10.0,57,0.00,,,0.00,563,Wunderground v.1.15,2013-03-17 16:10:00,
2013-03-17 10:20:00,33.5,21.9,29.56,North,355,12.0,14.0,62,0.00,,,0.00,308,Wunderground v.1.15,2013-03-17 16:20:00,
2013-03-17 10:31:00,33.7,18.4,29.56,NNE,13,9.0,10.0,53,0.00,,,0.00,580,Wunderground v.1.15,2013-03-17 16:31:00,
2013-03-17 10:40:00,35.0,17.7,29.56,WNW,298,7.0,7.0,49,0.00,,,0.00,729,Wunderground v.1.15,2013-03-17 16:40:00,
2013-03-17 10:50:00,35.6,16.8,29.55,WNW,303,10.0,19.0,46,0.00,,,0.00,698,Wunderground v.1.15,2013-03-17 16:50:00,
2013-03-17 11:00:00,35.8,18.0,29.53,SSW,194,7.0,7.0,48,0.00,,,0.00,721,Wunderground v.1.15,2013-03-17 17:00:00,
2013-03-17 11:20:00,36.4,13.8,29.52,WSW,242,15.0,16.0,39,0.00,,,0.00,155,Wunderground v.1.15,2013-03-17 17:20:00,
2013-03-17 11:50:00,36.0,15.6,29.51,NNE,17,9.0,26.0,43,0.00,,,0.00,853,Wunderground v.1.15,2013-03-17 17:50:00,
2013-03-17 12:10:00,36.3,15.4,29.51,SE,142,8.0,12.0,42,0.00,,,0.00,789,Wunderground v.1.15,2013-03-17 18:10:00,
2013-03-17 12:20:00,35.5,15.7,29.52,SSW,207,12.0,12.0,44,0.00,,,0.00,181,Wunderground v.1.15,2013-03-17 18:20:00,
2013-03-17 12:31:00,34.4,15.7,29.51,SSE,153,11.0,11.0,46,0.00,,,0.00,271,Wunderground v.1.15,2013-03-17 18:31:00,
2013-03-17 12:40:00,34.0,14.3,29.50,ENE,67,9.0,11.0,44,0.00,,,0.00,297,Wunderground v.1.15,2013-03-17 18:40:00,
2013-03-17 13:00:00,35.5,14.1,29.49,ENE,60,10.0,13.0,41,0.00,,,0.00,325,Wunderground v.1.15,2013-03-17 19:00:00,
2013-03-17 13:10:00,35.4,12.9,29.49,North,355,13.0,16.0,39,0.00,,,0.00,237,Wunderground v.1.15,2013-03-17 19:10:00,
2013-03-17 13:30:00,36.2,12.4,29.49,NW,306,15.0,15.0,37,0.00,,,0.00,995,Wunderground v.1.15,2013-03-17 19:30:00,
2013-03-17 13:40:00,35.8,11.4,29.48,SSW,205,13.0,13.0,36,0.00,,,0.00,311,Wunderground v.1.15,2013-03-17 19:40:00,
2013-03-17 14:00:00,36.1,14.1,29.47,NNE,18,16.0,16.0,40,0.00,,,0.00,561,Wunderground v.1.15,2013-03-17 20:00:00,
2013-03-17 14:10:00,35.3,15.5,29.48,NNW,328,16.0,19.0,44,0.00,,,0.00,613,Wunderground v.1.15,2013-03-17 20:10:00,
2013-03-17 14:30:00,34.4,12.0,29.47,North,360,14.0,22.0,39,0.00,,,0.00,244,Wunderground v.1.15,2013-03-17 20:30:00,
2013-03-17 14:40:00,34.3,13.0,29.48,NW,325,15.0,20.0,41,0.00,,,0.00,234,Wunderground v.1.15,2013-03-17 20:40:00,
2013-03-17 15:00:00,32.0,13.5,29.48,NNW,348,17.0,17.0,46,0.00,,,0.00,241,Wunderground v.1.15,2013-03-17 21:00:00,
2013-03-17 15:10:00,31.6,13.7,29.51,WSW,248,13.0,13.0,47,0.00,,,0.00,151,Wunderground v.1.15,2013-03-17 21:10:00,
2013-03-17 15:31:00,31.3,14.3,29.50,NNW,334,13.0,22.0,49,0.00,,,0.00,258,Wunderground v.1.15,2013-03-17 21:31:00,
2013-03-17 15:40:00,31.2,14.7,29.51,NNE,24,13.0,22.0,50,0.00,,,0.00,302,Wunderground v.1.15,2013-03-17 21:40:00,
2013-03-17 16:00:00,30.3,14.3,29.51,SW,236,14.0,14.0,51,0.00,,,0.00,192,Wunderground v.1.15,2013-03-17 22:00:00,
2013-03-17 16:10:00,30.6,14.6,29.51,WNW,287,15.0,18.0,51,0.00,,,0.00,125,Wunderground v.1.15,2013-03-17 22:10:00,
2013-03-17 16:30:00,29.0,14.8,29.52,North,5,13.0,13.0,55,0.00,,,0.00,216,Wunderground v.1.15,2013-03-17 22:30:00,
2013-03-17 16:40:00,29.4,14.4,29.55,NNE,30,13.0,13.0,53,0.00,,,0.00,153,Wunderground v.1.15,2013-03-17 22:40:00,
2013-03-17 17:00:00,28.3,12.9,29.54,NE,39,14.0,14.0,52,0.00,,,0.00,121,Wunderground v.1.15,2013-03-17 23:00:00,
2013-03-17 17:10:00,28.5,12.2,29.57,NNW,327,12.0,22.0,50,0.00,,,0.00,144,Wunderground v.1.15,2013-03-17 23:10:00,
2013-03-17 17:30:00,27.3,8.2,29.57,NNW,338,15.0,44.0,44,0.00,,,0.00,65,Wunderground v.1.15,2013-03-17 23:30:00,
2013-03-17 17:40:00,27.0,8.5,29.58,WSW,246,12.0,12.0,45,0.00,,,0.00,60,Wunderground v.1.15,2013-03-17 23:40:00,
2013-03-17 18:00:00,26.3,6.8,29.58,WSW,256,16.0,16.0,43,0.00,,,0.00,47,Wunderground v.1.15,2013-03-18 00:00:00,
2013-03-17 18:10:00,25.9,6.4,29.61,West,261,13.0,13.0,43,0.00,,,0.00,81,Wunderground v.1.15,2013-03-18 00:10:00,
2013-03-17 18:30:00,25.2,4.8,29.62,SSE,157,12.0,12.0,41,0.00,,,0.00,26,Wunderground v.1.15,2013-03-18 00:30:00,
2013-03-17 18:40:00,24.6,5.3,29.62,ESE,118,13.0,17.0,43,0.00,,,0.00,25,Wunderground v.1.15,2013-03-18 00:40:00,
2013-03-17 19:00:00,23.6,1.7,29.66,North,355,20.0,21.0,38,0.00,,,0.00,9,Wunderground v.1.15,2013-03-18 01:00:00,
2013-03-17 19:10:00,23.1,1.2,29.66,NNW,342,19.0,19.0,38,0.00,,,0.00,5,Wunderground v.1.15,2013-03-18 01:10:00,
2013-03-17 19:30:00,22.4,-0.6,29.70,NNW,345,19.0,19.0,36,0.00,,,0.00,0,Wunderground v.1.15,2013-03-18 01:30:00,
2013-03-17 19:40:00,22.0,-1.5,29.71,West,263,16.0,23.0,35,0.00,,,0.00,0,Wunderground v.1.15,2013-03-18 01:40:00,
2013-03-17 20:01:00,21.5,-0.2,29.73,North,349,17.0,17.0,38,0.00,,,0.00,0,Wunderground v.1.15,2013-03-18 02:01:00,
2013-03-17 20:10:00,21.4,0.2,29.74,NE,34,15.0,17.0,39,0.00,,,0.00,0,Wunderground v.1.15,2013-03-18 02:10:00,
2013-03-17 20:20:00,21.2,1.1,29.76,WNW,299,12.0,12.0,41,0.00,,,0.00,0,Wunderground v.1.15,2013-03-18 02:20:00,
2013-03-17 20:40:00,20.6,2.6,29.78,ENE,70,9.0,9.0,45,0.00,,,0.00,0,Wunderground v.1.15,2013-03-18 02:40:00,
2013-03-17 20:50:00,20.3,3.2,29.79,NNW,342,8.0,17.0,47,0.00,,,0.00,0,Wunderground v.1.15,2013-03-18 02:50:00,
2013-03-17 21:10:00,19.7,4.5,29.80,NNE,21,8.0,8.0,51,0.00,,,0.00,0,Wunderground v.1.15,2013-03-18 03:10:00,
2013-03-17 21:20:00,19.4,4.2,29.81,NNE,15,6.0,10.0,51,0.00,,,0.00,0,Wunderground v.1.15,2013-03-18 03:20:00,
2013-03-17 21:50:00,19.0,4.7,29.81,NW,326,11.0,11.0,53,0.00,,,0.00,0,Wunderground v.1.15,2013-03-18 03:50:00,
2013-03-17 22:00:00,18.9,4.6,29.82,North,5,7.0,7.0,53,0.00,,,0.00,0,Wunderground v.1.15,2013-03-18 04:00:00,
2013-03-17 22:20:00,18.7,4.8,29.83,WSW,239,7.0,13.0,54,0.00,,,0.00,0,Wunderground v.1.15,2013-03-18 04:20:00,
2013-03-17 22:30:00,18.5,4.2,29.83,WNW,303,9.0,12.0,53,0.00,,,0.00,0,Wunderground v.1.15,2013-03-18 04:30:00,
2013-03-17 22:50:00,18.3,4.0,29.85,NW,309,8.0,8.0,53,0.00,,,0.00,0,Wunderground v.1.15,2013-03-18 04:50:00,
2013-03-17 23:00:00,18.1,4.6,29.85,NNW,334,8.0,8.0,55,0.00,,,0.00,0,Wunderground v.1.15,2013-03-18 05:00:00,
2013-03-17 23:20:00,17.6,5.7,29.86,NW,323,10.0,15.0,59,0.00,,,0.00,0,Wunderground v.1.15,2013-03-18 05:20:00,
2013-03-17 23:30:00,17.3,5.4,29.86,NW,326,8.0,24.0,59,0.00,,,0.00,0,Wunderground v.1.15,2013-03-18 05:30:00,
2013-03-17 23:50:00,17.0,5.5,29.88,WSW,238,8.0,17.0,60,0.00,,,0.00,0,Wunderground v.1.15,2013-03-18 05:50:00,